User: anonymous   Login
Location: Santa Barbara
(34.4500°N, 119.7700°W)
Time: 15:07:50
(UTC-08:00)
Language:

Cosmos 1626 Rocket - Orbit

View from above orbital plane
View from above orbital plane
View from above satellite
View from above satellite

Ground track
Ground track

The orbit data is extracted from the following two-line orbital elements,

1 15495U 85009B   14353.90167693  .00000845  00000-0  99675-4 0  9721
2 15495 082.5255 319.9341 0021962 093.6815 266.6912 14.83397350614999
Epoch (UTC): 19 December 2014 21:38:24
Eccentricity: 0.0021962
inclination: 82.5255°
perigee height: 603 km
apogee height: 634 km
right ascension of ascending node: 319.9341°
argument of perigee: 93.6815°
revolutions per day: 14.83397350
mean anomaly at epoch: 266.6912°
orbit number at epoch: 61499

The dashed part of the orbit path shows where the satellite is in the earth's shadow,  

DLR